This is the latest recevied weather packets stored in our database for station/object KA5ZCI. If no packets are shown the sender has not sent any weather packets the latest 10 day(s).
| Time | Temp. | Humidity | Pressure | Rain* | Wind** | Luminosity | Snow |
|---|---|---|---|---|---|---|---|
| 1777612503 | 20.56° C | 96% | 1011.1 hPa | 0 mm | - | 0 W/m² | - |
| 1777610404 | 20.56° C | 96% | 1011.5 hPa | 0 mm | - | 0 W/m² | - |
| 1777608604 | 20.56° C | 95% | 1011.5 hPa | 0 mm | - | 0 W/m² | - |
| 1777608303 | 21.11° C | 95% | 1011.5 hPa | 0 mm | - | 0 W/m² | - |
| 1777606804 | 20.56° C | 95% | 1011.7 hPa | 0 mm | - | 0 W/m² | - |
| 1777604704 | 21.11° C | 95% | 1011.2 hPa | 0 mm | - | 0 W/m² | - |
| 1777604104 | 21.11° C | 94% | 1010.9 hPa | 0 mm | - | 0 W/m² | - |
| 1777601403 | 21.11° C | 95% | 1009.9 hPa | 0 mm | - | 0 W/m² | - |
| 1777599904 | 21.11° C | 95% | 1009.8 hPa | 0 mm | - | 0 W/m² | - |
| 1777599304 | 20.56° C | 94% | 1009.8 hPa | 0 mm | - | 0 W/m² | - |
| 1777599004 | 20.56° C | 94% | 1010.1 hPa | 0 mm | - | 0 W/m² | - |
| 1777598703 | 20.56° C | 94% | 1010.1 hPa | 0 mm | - | 0 W/m² | - |
| 1777597804 | 20.56° C | 94% | 1010.1 hPa | 0 mm | - | 0 W/m² | - |
| 1777597504 | 20.56° C | 93% | 1010.4 hPa | 0 mm | - | 0 W/m² | - |
| 1777596304 | 21.11° C | 93% | 1010.2 hPa | 0 mm | - | 0 W/m² | - |
| 1777594804 | 21.11° C | 95% | 1010.4 hPa | 0.25 mm | - | 0 W/m² | - |
| 1777594503 | 21.11° C | 95% | 1010.4 hPa | 0.25 mm | - | 0 W/m² | - |
| 1777594204 | 21.11° C | 95% | 1010.4 hPa | 0.25 mm | - | 0 W/m² | - |
| 1777592404 | 21.11° C | 95% | 1011 hPa | 1.78 mm | - | 0 W/m² | - |
| 1777590004 | 20° C | 95% | 1010 hPa | 33.78 mm | - | 0 W/m² | - |
| 1777587904 | 21.67° C | 95% | 1009.9 hPa | 45.72 mm | - | 0 W/m² | - |
| 1777587004 | 22.22° C | 94% | 1009.9 hPa | 32.77 mm | - | 0 W/m² | - |
| 1777585504 | 22.78° C | 92% | 1009.1 hPa | 9.14 mm | - | 0 W/m² | - |
| 1777584304 | 23.33° C | 89% | 1008.8 hPa | 0.25 mm | - | 0 W/m² | - |
| 1777583104 | 23.33° C | 89% | 1009.2 hPa | 0 mm | - | 0 W/m² | - |
* Rain latest hour (hover to see other rain measurements)
** Current wind speed in m/s (hover to see current wind gust speed)